{"data":{"norad_id":53677,"epoch":"2026-09-20T14:20:53.155680Z","epoch_age_seconds":72820,"freshness":"FRESH","line1":"1 53677U 22105AF  26263.59783745  .00001135  00000+0  37479-4 0  9998","line2":"2 53677  97.2849 140.3039 0001527  91.0408 269.1010 15.33438598222752","mean_motion":15.33438598,"eccentricity":0.0001527,"inclination_deg":97.2849,"raan_deg":140.3039,"arg_perigee_deg":91.0408,"mean_anomaly_deg":269.101,"bstar":3.7479e-5,"rev_number":22275,"period_min":93.906596708739,"perigee_km":464.51718952095,"apogee_km":466.60725526347,"semimajor_km":6843.6992223922,"source":"CELESTRAK","updated_at":"2026-09-21T09:00:32.977926Z"}}